Location: ??????
(55.4348°N, 39.2112°E)
Time: 12:52:53
(UTC+00:00)

Cosmos 2278 Rocket - Pass Details

Date: 14 April 2024
Orbit: 839 x 846 km, 71.0° (Epoch: 26 May)

Event Time Altitude Azimuth Distance (km) Brightness Sun altitude
Rises 00:10:30 0° 325° (NW) 3,420 5.5 -16.3°
Reaches altitude 10° 00:12:58 10° 322° (NW) 2,482 4.7 -16.1°
Maximum altitude 00:18:36 64° 243° (WSW) 939 2.2 -15.5°
Drops below altitude 10° 00:24:11 10° 163° (SSE) 2,466 4.4 -15.0°
Sets 00:26:38 0° 160° (SSE) 3,396 5.1 -14.7°
